ASA12 PANC-PAJN

Flight info

Callsign ASA12
Flight time 1h 14m
Altitude 37000
Route NOEND CUSHI
Aircraft B738/M-SDE2E3FGHIRWXY/LB1

Departure

Time 2026-04-15 16:41
Airport Ted Stevens Anchorage International Airport (PANC)

Arrival

Time 2026-04-15 17:56
Airport Juneau International Airport (PAJN)
Time Latitude Longitude Altitude Speed Heading
2026-04-15 16:18 61.17229 -149.98534 110 ft 0 kts 63°
2026-04-15 16:27 61.17224 -149.98554 108 ft 3 kts 65°
2026-04-15 16:27 61.17215 -149.98590 109 ft 3 kts 58°
2026-04-15 16:28 61.17204 -149.98625 110 ft 3 kts 52°
2026-04-15 16:28 61.17191 -149.98657 110 ft 3 kts 45°
2026-04-15 16:28 61.17176 -149.98685 111 ft 3 kts 32°
2026-04-15 16:28 61.17159 -149.98702 114 ft 3 kts
2026-04-15 16:29 61.17145 -149.98700 119 ft 1 kts 331°
2026-04-15 16:29 61.17141 -149.98695 107 ft 1 kts 331°
2026-04-15 16:31 61.17144 -149.98699 120 ft 2 kts 331°
2026-04-15 16:32 61.17174 -149.98732 112 ft 8 kts 335°
2026-04-15 16:32 61.17240 -149.98780 111 ft 12 kts 339°
2026-04-15 16:32 61.17330 -149.98876 106 ft 16 kts 302°
2026-04-15 16:32 61.17303 -149.99088 111 ft 15 kts 258°
2026-04-15 16:33 61.17289 -149.99300 116 ft 15 kts 268°
2026-04-15 16:33 61.17289 -149.99505 121 ft 14 kts 270°
2026-04-15 16:33 61.17348 -149.99632 120 ft 14 kts 346°
2026-04-15 16:33 61.17437 -149.99682 120 ft 13 kts 346°
2026-04-15 16:34 61.17523 -149.99729 117 ft 13 kts 345°
2026-04-15 16:34 61.17607 -149.99777 114 ft 13 kts 345°
2026-04-15 16:34 61.17701 -149.99829 115 ft 15 kts 345°
2026-04-15 16:34 61.17807 -149.99888 113 ft 16 kts 345°
2026-04-15 16:35 61.17910 -149.99945 114 ft 15 kts 345°
2026-04-15 16:35 61.18008 -150.00001 125 ft 14 kts 344°
2026-04-15 16:35 61.18106 -150.00055 123 ft 16 kts 345°
2026-04-15 16:35 61.18215 -150.00116 114 ft 16 kts 345°
2026-04-15 16:36 61.18320 -150.00175 120 ft 15 kts 345°
2026-04-15 16:36 61.18422 -150.00232 120 ft 15 kts 345°
2026-04-15 16:36 61.18519 -150.00286 122 ft 14 kts 345°
2026-04-15 16:36 61.18612 -150.00338 123 ft 14 kts 345°
2026-04-15 16:37 61.18708 -150.00392 124 ft 16 kts 344°
2026-04-15 16:37 61.18827 -150.00459 126 ft 20 kts 345°
2026-04-15 16:37 61.18971 -150.00538 132 ft 23 kts 345°
2026-04-15 16:37 61.19125 -150.00625 136 ft 23 kts 345°
2026-04-15 16:38 61.19275 -150.00709 141 ft 22 kts 345°
2026-04-15 16:38 61.19422 -150.00791 145 ft 21 kts 345°
2026-04-15 16:38 61.19564 -150.00870 149 ft 21 kts 345°
2026-04-15 16:38 61.19701 -150.00948 153 ft 20 kts 345°
2026-04-15 16:39 61.19835 -150.01023 156 ft 20 kts 345°
2026-04-15 16:39 61.19921 -150.01071 157 ft 19 kts 345°
2026-04-15 16:39 61.19997 -150.01238 155 ft 18 kts 253°
2026-04-15 16:39 61.19949 -150.01434 159 ft 12 kts 187°
2026-04-15 16:40 61.19925 -150.01424 158 ft 0 kts 165°
2026-04-15 16:40 61.19795 -150.01352 156 ft 59 kts 165°
2026-04-15 16:40 61.19108 -150.00969 143 ft 142 kts 165°
2026-04-15 16:41 61.17954 -150.00332 432 ft 181 kts 165°
2026-04-15 16:41 61.16833 -149.99747 1897 ft 157 kts 167°
2026-04-15 16:41 61.15725 -149.99115 2686 ft 177 kts 163°
2026-04-15 16:41 61.14453 -149.98319 2996 ft 208 kts 163°
2026-04-15 16:42 61.12971 -149.97388 3453 ft 226 kts 163°
2026-04-15 16:42 61.11453 -149.96434 4082 ft 239 kts 163°
2026-04-15 16:42 61.09802 -149.95397 4792 ft 252 kts 163°
2026-04-15 16:42 61.08276 -149.93647 5702 ft 257 kts 134°
2026-04-15 16:43 61.07458 -149.90365 6665 ft 264 kts 104°
2026-04-15 16:43 61.07254 -149.86526 7422 ft 275 kts 96°
2026-04-15 16:43 61.07152 -149.82532 8197 ft 282 kts 95°
2026-04-15 16:43 61.07056 -149.78423 9019 ft 289 kts 94°
2026-04-15 16:44 61.06957 -149.74227 9833 ft 297 kts 94°
2026-04-15 16:44 61.06851 -149.69895 10445 ft 310 kts 94°
2026-04-15 16:44 61.06736 -149.65270 10658 ft 335 kts 94°
2026-04-15 16:44 61.06619 -149.60357 11190 ft 349 kts 91°
2026-04-15 16:45 61.06803 -149.55304 11919 ft 355 kts 83°
2026-04-15 16:45 61.07170 -149.50240 12736 ft 359 kts 81°
2026-04-15 16:45 61.07572 -149.45087 13450 ft 366 kts 81°
2026-04-15 16:45 61.07963 -149.39832 14112 ft 374 kts 82°
2026-04-15 16:46 61.08334 -149.34477 14816 ft 378 kts 82°
2026-04-15 16:46 61.08678 -149.29138 15504 ft 383 kts 82°
2026-04-15 16:46 61.09014 -149.23646 16174 ft 388 kts 83°
2026-04-15 16:46 61.09346 -149.18055 16827 ft 394 kts 83°
2026-04-15 16:47 61.09676 -149.12395 17489 ft 399 kts 83°
2026-04-15 16:47 61.10005 -149.06670 18159 ft 405 kts 83°
2026-04-15 16:47 61.10337 -149.00847 18785 ft 409 kts 83°
2026-04-15 16:47 61.10667 -148.94992 19438 ft 412 kts 83°
2026-04-15 16:48 61.10998 -148.89075 20015 ft 417 kts 83°
2026-04-15 16:48 61.11332 -148.83081 20572 ft 421 kts 83°
2026-04-15 16:48 61.11665 -148.77042 21142 ft 425 kts 83°
2026-04-15 16:48 61.12001 -148.70930 21665 ft 430 kts 84°
2026-04-15 16:49 61.12337 -148.64751 22177 ft 435 kts 83°
2026-04-15 16:49 61.12675 -148.58502 22730 ft 439 kts 83°
2026-04-15 16:49 61.12988 -148.52186 23270 ft 443 kts 87°
2026-04-15 16:49 61.12910 -148.45772 23739 ft 447 kts 98°
2026-04-15 16:50 61.12335 -148.39459 24197 ft 447 kts 108°
2026-04-15 16:50 61.11429 -148.33286 24635 ft 450 kts 110°
2026-04-15 16:50 61.10465 -148.27100 25007 ft 454 kts 111°
2026-04-15 16:50 61.09490 -148.20944 25419 ft 459 kts 111°
2026-04-15 16:51 61.08496 -148.14653 25812 ft 462 kts 110°
2026-04-15 16:51 61.07490 -148.08235 26240 ft 466 kts 110°
2026-04-15 16:51 61.06496 -148.01844 26649 ft 469 kts 110°
2026-04-15 16:51 61.05512 -147.95487 26971 ft 473 kts 110°
2026-04-15 16:52 61.04505 -147.88976 27276 ft 479 kts 110°
2026-04-15 16:52 61.03488 -147.82407 27686 ft 482 kts 110°
2026-04-15 16:52 61.02463 -147.75805 28090 ft 485 kts 110°
2026-04-15 16:52 61.01429 -147.69163 28470 ft 488 kts 110°
2026-04-15 16:53 61.00385 -147.62478 28797 ft 492 kts 110°
2026-04-15 16:53 60.99329 -147.55750 29139 ft 495 kts 110°
2026-04-15 16:53 60.98264 -147.48997 29492 ft 498 kts 110°
2026-04-15 16:53 60.97189 -147.42202 29833 ft 501 kts 110°
2026-04-15 16:54 60.96104 -147.35365 30130 ft 504 kts 110°
2026-04-15 16:54 60.95004 -147.28501 30389 ft 506 kts 110°
2026-04-15 16:54 60.93895 -147.21605 30637 ft 509 kts 110°
2026-04-15 16:54 60.92783 -147.14688 30894 ft 511 kts 110°
2026-04-15 16:55 60.91659 -147.07718 31163 ft 513 kts 110°
2026-04-15 16:55 60.90533 -147.00761 31425 ft 515 kts 110°
2026-04-15 16:55 60.89411 -146.93860 31744 ft 516 kts 110°
2026-04-15 16:55 60.88273 -146.86883 32156 ft 514 kts 110°
2026-04-15 16:56 60.87135 -146.79942 32552 ft 513 kts 110°
2026-04-15 16:56 60.85994 -146.73009 32889 ft 513 kts 110°
2026-04-15 16:56 60.84848 -146.66077 33185 ft 513 kts 110°
2026-04-15 16:56 60.83700 -146.59155 33468 ft 514 kts 110°
2026-04-15 16:57 60.82543 -146.52211 33808 ft 513 kts 110°
2026-04-15 16:57 60.81388 -146.45301 34131 ft 512 kts 110°
2026-04-15 16:57 60.80230 -146.38404 34404 ft 512 kts 110°
2026-04-15 16:57 60.79072 -146.31524 34664 ft 511 kts 110°
2026-04-15 16:58 60.77909 -146.24647 34943 ft 511 kts 110°
2026-04-15 16:58 60.76745 -146.17785 35219 ft 510 kts 110°
2026-04-15 16:58 60.75579 -146.10944 35467 ft 510 kts 110°
2026-04-15 16:58 60.74410 -146.04103 35712 ft 509 kts 110°
2026-04-15 16:59 60.73238 -145.97279 35980 ft 508 kts 110°
2026-04-15 16:59 60.72065 -145.90467 36260 ft 507 kts 110°
2026-04-15 16:59 60.70893 -145.83692 36490 ft 507 kts 110°
2026-04-15 16:59 60.69731 -145.76995 36706 ft 507 kts 110°
2026-04-15 17:00 60.68551 -145.70215 36946 ft 507 kts 110°
2026-04-15 17:00 60.66169 -145.56607 36971 ft 510 kts 110°
2026-04-15 17:01 60.63790 -145.43066 36962 ft 505 kts 110°
2026-04-15 17:01 60.61415 -145.29658 36958 ft 502 kts 110°
2026-04-15 17:02 60.59025 -145.16367 36963 ft 500 kts 110°
2026-04-15 17:02 60.56630 -145.03092 36953 ft 499 kts 110°
2026-04-15 17:03 60.54230 -144.89866 36967 ft 498 kts 110°
2026-04-15 17:03 60.51815 -144.76637 36957 ft 501 kts 110°
2026-04-15 17:04 60.49373 -144.63359 36954 ft 503 kts 110°
2026-04-15 17:04 60.46904 -144.50025 36971 ft 506 kts 110°
2026-04-15 17:05 60.44410 -144.36655 36971 ft 508 kts 110°
2026-04-15 17:05 60.41908 -144.23328 36972 ft 510 kts 110°
2026-04-15 17:06 60.39370 -144.09902 36964 ft 511 kts 111°
2026-04-15 17:06 60.36818 -143.96495 36960 ft 511 kts 111°
2026-04-15 17:07 60.34255 -143.83125 36965 ft 510 kts 111°
2026-04-15 17:07 60.31679 -143.69778 36962 ft 510 kts 111°
2026-04-15 17:08 60.29095 -143.56475 36959 ft 509 kts 111°
2026-04-15 17:08 60.26505 -143.43236 36964 ft 507 kts 111°
2026-04-15 17:09 60.23907 -143.30040 36967 ft 506 kts 111°
2026-04-15 17:09 60.21303 -143.16897 36971 ft 505 kts 111°
2026-04-15 17:10 60.18689 -143.03797 36963 ft 504 kts 111°
2026-04-15 17:10 60.16063 -142.90719 36968 ft 504 kts 112°
2026-04-15 17:11 60.13446 -142.77772 36969 ft 504 kts 111°
2026-04-15 17:11 60.10799 -142.64755 36967 ft 504 kts 112°
2026-04-15 17:12 60.06798 -142.45244 36964 ft 505 kts 112°
2026-04-15 17:12 60.04114 -142.32258 36962 ft 505 kts 112°
2026-04-15 17:13 60.01412 -142.19268 36972 ft 506 kts 112°
2026-04-15 17:13 59.98693 -142.06276 36978 ft 506 kts 112°
2026-04-15 17:14 59.95961 -141.93308 36977 ft 507 kts 112°
2026-04-15 17:14 59.93216 -141.80359 36973 ft 507 kts 112°
2026-04-15 17:15 59.90450 -141.67395 36976 ft 508 kts 112°
2026-04-15 17:15 59.87692 -141.54547 36964 ft 508 kts 112°
2026-04-15 17:16 59.84904 -141.41637 36973 ft 508 kts 112°
2026-04-15 17:16 59.82101 -141.28739 36965 ft 508 kts 112°
2026-04-15 17:17 59.79282 -141.15849 36976 ft 508 kts 113°
2026-04-15 17:17 59.76457 -141.03007 36985 ft 509 kts 113°
2026-04-15 17:18 59.73614 -140.90167 36979 ft 508 kts 113°
2026-04-15 17:18 59.70765 -140.77376 36975 ft 507 kts 113°
2026-04-15 17:19 59.67907 -140.64621 36975 ft 506 kts 113°
2026-04-15 17:19 59.65056 -140.51971 36974 ft 506 kts 113°
2026-04-15 17:20 59.62181 -140.39296 36983 ft 505 kts 113°
2026-04-15 17:20 59.59294 -140.26639 36972 ft 505 kts 113°
2026-04-15 17:21 59.56400 -140.14028 36975 ft 505 kts 113°
2026-04-15 17:21 59.53492 -140.01432 36975 ft 504 kts 113°
2026-04-15 17:22 59.50574 -139.88863 36976 ft 504 kts 114°
2026-04-15 17:22 59.47643 -139.76314 36973 ft 505 kts 113°
2026-04-15 17:23 59.44698 -139.63781 37002 ft 505 kts 114°
2026-04-15 17:23 59.41739 -139.51259 36999 ft 505 kts 114°
2026-04-15 17:24 59.38766 -139.38747 36996 ft 506 kts 114°
2026-04-15 17:24 59.35777 -139.26244 36991 ft 506 kts 114°
2026-04-15 17:25 59.32772 -139.13744 36993 ft 507 kts 114°
2026-04-15 17:25 59.29773 -139.01341 36996 ft 507 kts 114°
2026-04-15 17:26 59.26741 -138.88875 37005 ft 508 kts 114°
2026-04-15 17:26 59.23691 -138.76406 37005 ft 508 kts 114°
2026-04-15 17:27 59.20633 -138.63974 37010 ft 508 kts 114°
2026-04-15 17:27 59.17562 -138.51560 37003 ft 508 kts 114°
2026-04-15 17:28 59.14482 -138.39178 37004 ft 507 kts 114°
2026-04-15 17:28 59.11407 -138.26886 37014 ft 507 kts 114°
2026-04-15 17:29 59.08311 -138.14578 37011 ft 506 kts 114°
2026-04-15 17:29 59.05212 -138.02328 36658 ft 505 kts 114°
2026-04-15 17:30 59.03661 -137.96225 36171 ft 503 kts 114°
2026-04-15 17:30 59.02111 -137.90139 35599 ft 503 kts 115°
2026-04-15 17:30 59.00559 -137.84059 35132 ft 501 kts 115°
2026-04-15 17:30 58.99012 -137.78021 34705 ft 498 kts 115°
2026-04-15 17:31 58.97471 -137.72023 34255 ft 497 kts 115°
2026-04-15 17:31 58.96449 -137.68051 33937 ft 496 kts 115°
2026-04-15 17:31 58.94910 -137.62085 33450 ft 493 kts 115°
2026-04-15 17:31 58.93377 -137.56163 32986 ft 490 kts 115°
2026-04-15 17:32 58.91855 -137.50289 32541 ft 487 kts 115°
2026-04-15 17:32 58.90337 -137.44450 32107 ft 485 kts 115°
2026-04-15 17:32 58.88825 -137.38645 31675 ft 481 kts 115°
2026-04-15 17:32 58.87328 -137.32902 31247 ft 477 kts 115°
2026-04-15 17:33 58.85835 -137.27210 30841 ft 473 kts 115°
2026-04-15 17:33 58.84349 -137.21559 30432 ft 470 kts 115°
2026-04-15 17:33 58.82869 -137.15946 29998 ft 468 kts 115°
2026-04-15 17:33 58.81392 -137.10358 29495 ft 466 kts 115°
2026-04-15 17:34 58.79918 -137.04802 29046 ft 463 kts 115°
2026-04-15 17:34 58.78457 -136.99297 28630 ft 460 kts 115°
2026-04-15 17:34 58.77000 -136.93832 28155 ft 457 kts 114°
2026-04-15 17:34 58.75573 -136.88471 27752 ft 453 kts 114°
2026-04-15 17:35 58.74142 -136.83106 27357 ft 449 kts 114°
2026-04-15 17:35 58.72715 -136.77773 26927 ft 446 kts 114°
2026-04-15 17:35 58.71293 -136.72474 26497 ft 444 kts 114°
2026-04-15 17:35 58.69881 -136.67221 26096 ft 440 kts 114°
2026-04-15 17:36 58.68479 -136.62005 25679 ft 438 kts 114°
2026-04-15 17:36 58.67077 -136.56831 25263 ft 435 kts 114°
2026-04-15 17:36 58.65680 -136.51695 24885 ft 432 kts 114°
2026-04-15 17:36 58.64290 -136.46574 24438 ft 431 kts 114°
2026-04-15 17:37 58.62902 -136.41482 24031 ft 430 kts 114°
2026-04-15 17:37 58.61514 -136.36399 23629 ft 429 kts 113°
2026-04-15 17:37 58.60126 -136.31342 23154 ft 428 kts 115°
2026-04-15 17:37 58.58707 -136.26333 22695 ft 426 kts 114°
2026-04-15 17:38 58.57334 -136.21323 22315 ft 422 kts 114°
2026-04-15 17:38 58.55983 -136.16353 21900 ft 419 kts 114°
2026-04-15 17:38 58.54644 -136.11436 21500 ft 415 kts 114°
2026-04-15 17:38 58.53306 -136.06555 21091 ft 412 kts 114°
2026-04-15 17:39 58.51977 -136.01733 20714 ft 408 kts 115°
2026-04-15 17:39 58.50655 -135.96962 20328 ft 405 kts 115°
2026-04-15 17:39 58.49334 -135.92209 19966 ft 402 kts 115°
2026-04-15 17:39 58.48026 -135.87519 19595 ft 398 kts 115°
2026-04-15 17:40 58.46731 -135.82879 19219 ft 395 kts 116°
2026-04-15 17:40 58.45443 -135.78277 18869 ft 391 kts 117°
2026-04-15 17:40 58.44165 -135.73725 18493 ft 387 kts 117°
2026-04-15 17:40 58.42900 -135.69218 18093 ft 384 kts 117°
2026-04-15 17:41 58.41643 -135.64749 17683 ft 379 kts 117°
2026-04-15 17:41 58.40402 -135.60348 17323 ft 374 kts 117°
2026-04-15 17:41 58.39191 -135.56057 16939 ft 370 kts 117°
2026-04-15 17:41 58.37961 -135.51709 16574 ft 366 kts 118°
2026-04-15 17:42 58.36757 -135.47467 16204 ft 362 kts 118°
2026-04-15 17:42 58.35568 -135.43282 15958 ft 355 kts 118°
2026-04-15 17:42 58.34418 -135.39229 15440 ft 356 kts 118°
2026-04-15 17:42 58.33370 -135.34931 14956 ft 357 kts 110°
2026-04-15 17:43 58.32625 -135.30450 14587 ft 354 kts 106°
2026-04-15 17:43 58.31958 -135.25972 14198 ft 351 kts 106°
2026-04-15 17:43 58.31287 -135.21531 13858 ft 347 kts 107°
2026-04-15 17:43 58.30597 -135.17171 13480 ft 343 kts 107°
2026-04-15 17:44 58.29885 -135.12859 13148 ft 338 kts 108°
2026-04-15 17:44 58.29167 -135.08640 12828 ft 333 kts 108°
2026-04-15 17:44 58.28445 -135.04485 12489 ft 329 kts 109°
2026-04-15 17:44 58.27725 -135.00384 12162 ft 326 kts 109°
2026-04-15 17:45 58.27006 -134.96318 11838 ft 322 kts 109°
2026-04-15 17:45 58.26293 -134.92312 11524 ft 319 kts 109°
2026-04-15 17:45 58.25583 -134.88331 11199 ft 316 kts 109°
2026-04-15 17:45 58.24880 -134.84402 10901 ft 313 kts 109°
2026-04-15 17:46 58.24180 -134.80500 10581 ft 311 kts 109°
2026-04-15 17:46 58.23487 -134.76641 10324 ft 307 kts 109°
2026-04-15 17:46 58.22805 -134.72867 10183 ft 298 kts 110°
2026-04-15 17:46 58.22146 -134.69207 10071 ft 289 kts 109°
2026-04-15 17:47 58.21504 -134.65652 9924 ft 282 kts 110°
2026-04-15 17:47 58.20870 -134.62148 9653 ft 279 kts 110°
2026-04-15 17:47 58.20242 -134.58687 9422 ft 276 kts 110°
2026-04-15 17:47 58.19622 -134.55278 9175 ft 273 kts 110°
2026-04-15 17:48 58.19004 -134.51888 8933 ft 270 kts 110°
2026-04-15 17:48 58.18392 -134.48533 8663 ft 268 kts 110°
2026-04-15 17:48 58.17786 -134.45214 8404 ft 266 kts 110°
2026-04-15 17:48 58.17182 -134.41908 8143 ft 265 kts 110°
2026-04-15 17:49 58.16580 -134.38623 7878 ft 263 kts 110°
2026-04-15 17:49 58.15986 -134.35396 7609 ft 262 kts 110°
2026-04-15 17:49 58.15386 -134.32137 7329 ft 262 kts 110°
2026-04-15 17:49 58.14836 -134.28858 7035 ft 262 kts 100°
2026-04-15 17:50 58.14995 -134.25454 6740 ft 262 kts 68°
2026-04-15 17:50 58.16021 -134.22678 6462 ft 259 kts 38°
2026-04-15 17:50 58.17612 -134.21180 6177 ft 256 kts 11°
2026-04-15 17:50 58.19372 -134.21194 5703 ft 259 kts 339°
2026-04-15 17:51 58.20757 -134.23211 5513 ft 250 kts 303°
2026-04-15 17:51 58.21680 -134.25949 5348 ft 244 kts 303°
2026-04-15 17:51 58.22635 -134.28488 5281 ft 228 kts 306°
2026-04-15 17:51 58.23581 -134.30747 5142 ft 210 kts 309°
2026-04-15 17:52 58.24502 -134.32781 4834 ft 196 kts 310°
2026-04-15 17:52 58.25403 -134.34658 4387 ft 191 kts 311°
2026-04-15 17:52 58.26305 -134.36461 3931 ft 186 kts 313°
2026-04-15 17:52 58.27204 -134.38222 3453 ft 183 kts 314°
2026-04-15 17:53 58.28095 -134.39946 2951 ft 183 kts 314°
2026-04-15 17:53 58.29004 -134.41694 2212 ft 188 kts 315°
2026-04-15 17:53 58.29932 -134.43473 1542 ft 191 kts 314°
2026-04-15 17:53 58.30845 -134.45215 1271 ft 178 kts 315°
2026-04-15 17:54 58.31699 -134.46813 1130 ft 165 kts 316°
2026-04-15 17:54 58.32483 -134.48286 1005 ft 152 kts 315°
2026-04-15 17:54 58.33253 -134.49607 1039 ft 149 kts 328°
2026-04-15 17:54 58.34240 -134.50305 827 ft 154 kts 323°
2026-04-15 17:55 58.34761 -134.52011 579 ft 150 kts 283°
2026-04-15 17:55 58.34979 -134.53913 316 ft 147 kts 283°
2026-04-15 17:55 58.35234 -134.55726 62 ft 136 kts 283°
2026-04-15 17:55 58.35434 -134.57190 34 ft 71 kts 285°
2026-04-15 17:56 58.35476 -134.57493 34 ft 0 kts 284°
2026-04-15 17:56 58.35479 -134.57513 34 ft 3 kts 284°
2026-04-15 17:56 58.35488 -134.57578 34 ft 7 kts 284°
2026-04-15 17:56 58.35504 -134.57695 35 ft 11 kts 284°
2026-04-15 17:57 58.35528 -134.57875 34 ft 17 kts 284°
2026-04-15 17:57 58.35596 -134.58042 33 ft 17 kts 359°
2026-04-15 17:57 58.35681 -134.58143 33 ft 17 kts 284°
2026-04-15 17:57 58.35708 -134.58357 33 ft 16 kts 284°
2026-04-15 17:58 58.35735 -134.58561 33 ft 16 kts 284°
2026-04-15 17:58 58.35803 -134.58571 33 ft 14 kts 80°
2026-04-15 17:58 58.35800 -134.58480 33 ft 0 kts 100°
2026-04-15 17:59 58.35800 -134.58478 33 ft 1 kts 102°
2026-04-15 17:59 58.35796 -134.58457 33 ft 3 kts 107°
2026-04-15 17:59 58.35796 -134.58410 33 ft 4 kts 63°
2026-04-15 17:59 58.35821 -134.58377 33 ft 4 kts 19°
2026-04-15 18:00 58.35829 -134.58371 33 ft 0 kts 21°
2026-04-15 18:00 58.35834 -134.58367 32 ft 2 kts 21°
2026-04-15 18:00 58.35836 -134.58366 33 ft 0 kts 23°